Location: *
(45.8589°N, 4.7139°E)
Time: 22:47:24
(UTC+00:00)

Cosmos 921 Rocket - Pass Details

Date: 09 April 2020
Orbit: 572 x 632 km, 75.8° (Epoch: 05 June)

Event Time Altitude Azimuth Distance (km) Brightness Sun altitude
Rises 18:59:31 0° 348° (NNW) 2,789 6.9 -7.3°
Reaches altitude 10° 19:01:52 10° 357° (N) 1,887 5.9 -7.7°
Maximum altitude 19:05:45 36° 65° (ENE) 914 3.6 -8.4°
Drops below altitude 10° 19:09:38 10° 133° (SE) 1,887 5.0 -9.0°
Enters shadow 19:09:40 10° 133° (SE) 1,898 5.0 -9.0°
